Wind_Speed
39 39 38 34 30 25 22 17 19 18 18 16 14 12 11 8 9 10 9 8 8 11 11 14 15 16 16 16 14 12 11 13 12 10 6 6 7 7 9 10 11 8 6 6 6 7 6 6 5 6 5 8 10 10
41 41 39 34 34 26 24 20 17 17 16 17 16 13 10 10 9 11 13 13 12 11 12 10 9 14 16 16 16 17 17 14 8 6 7 6 10 13 15 9 12 9 8 5 7 6 8 10 12 16 18 16 13 13
41 40 39 33 33 29 22 21 17 18 15 16 17 15 13 10 11 11 12 14 15 15 13 11 10 13 18 19 19 19 18 18 20 20 20 18 18 18 18 18 20 19 18 22 21 8 8 9 13 14 14 14 15 15
41 38 35 35 31 29 24 19 19 19 17 16 17 15 14 12 10 12 12 13 15 17 17 14 11 11 14 18 20 22 22 22 23 23 23 25 27 22 27 27 31 30 29 30 32 28 27 26 23 21 21 20 17 16
38 36 33 32 26 26 24 23 19 19 20 17 16 15 13 14 12 11 11 12 13 15 17 17 16 16 16 16 18 20 23 25 26 28 29 30 31 31 36 38 43 33 28 30 27 14 20 20 19 20 18 17 18 18
35 34 31 31 27 27 24 26 22 20 22 20 18 16 14 14 14 12 10 9 10 13 17 18 12 16 18 17 17 20 22 24 26 29 30 32 32 29 23 35 41 31 25 23 22 21 22 17 15 16 16 17 19 21
36 33 30 26 26 28 24 27 26 22 22 21 20 19 15 15 14 14 12 13 10 11 14 12 10 9 8 7 11 15 18 21 23 29 33 33 33 32 42 43 37 35 31 27 29 32 31 26 23 21 22 22 22 22
41 35 32 27 27 32 29 29 28 25 25 23 21 20 19 17 16 15 15 14 13 12 14 9 10 12 11 12 16 17 15 15 22 26 34 34 34 32 34 24 17 12 9 12 18 20 27 28 26 24 24 23 21 20
45 44 38 32 30 29 30 29 30 26 28 24 23 23 20 20 18 17 16 16 16 15 10 11 13 12 8 8 13 18 23 24 22 25 26 22 28 26 27 24 24 28 29 28 20 17 13 17 19 18 16 17 19 19
53 46 43 34 31 32 33 33 32 27 28 28 25 24 23 20 18 18 19 21 20 19 24 18 14 17 16 18 20 14 11 8 10 14 14 21 32 19 12 16 21 19 19 23 18 15 11 8 8 9 12 17 17 18
49 44 40 36 32 32 34 35 35 31 27 30 29 27 23 19 20 20 13 10 9 8 9 7 6 6 8 10 12 8 6 7 6 6 8 9 21 14 16 21 25 21 17 18 22 17 11 10 10 15 16 15 17 19
44 43 38 36 34 36 35 36 38 35 31 29 30 27 24 20 13 12 12 12 13 9 9 7 7 6 6 8 7 7 8 6 6 8 7 7 14 20 24 23 20 18 15 9 20 25 23 21 22 17 14 16 18 20
44 38 40 37 36 36 36 36 38 36 33 31 29 25 14 15 20 14 15 13 12 10 9 9 9 8 7 6 6 6 5 8 8 7 6 9 8 16 24 20 15 12 9 6 1 7 11 12 11 12 14 16 19 22
45 43 43 43 38 34 37 38 40 37 35 35 26 20 16 14 14 27 26 15 16 12 10 10 10 7 8 7 8 6 8 7 7 8 10 13 13 17 23 24 20 13 10 6 5 5 6 8 11 13 14 17 20 23
48 46 46 41 41 36 38 38 42 40 39 40 22 16 25 28 24 14 20 23 17 14 12 12 12 12 10 8 7 9 6 8 10 10 10 13 18 21 27 28 24 18 15 13 11 11 11 12 12 14 16 18 20 22
53 46 48 43 43 42 37 43 46 43 43 43 36 27 22 24 30 29 24 22 19 16 15 15 12 7 12 8 10 12 7 11 11 9 15 19 22 27 28 21 21 17 17 15 14 13 13 14 14 16 18 20 23 24
46 47 48 45 49 46 43 52 51 51 43 53 59 50 33 29 23 25 25 24 22 20 20 14 9 10 9 10 15 20 21 14 15 19 19 22 23 20 21 23 23 21 18 18 17 16 15 15 16 17 17 20 24 24
53 53 47 46 50 47 52 54 54 53 59 59 55 53 51 49 34 22 25 28 28 25 24 26 23 24 16 22 29 19 18 20 22 22 24 25 28 30 30 30 28 24 22 18 18 18 18 17 17 15 17 22 25 25
46 47 49 49 52 55 60 60 60 60 62 63 63 57 49 43 44 43 40 34 30 30 31 33 24 36 39 26 19 24 24 24 25 27 26 27 28 30 32 31 27 25 22 20 21 20 20 19 17 16 18 23 27 25
39 48 48 49 52 58 61 44 62 62 52 61 63 59 49 48 42 37 37 39 39 39 42 48 51 47 41 37 36 35 36 34 32 32 32 33 36 36 35 33 29 26 22 21 22 21 21 21 19 20 19 19 28 26
42 49 42 44 53 58 56 46 56 64 67 64 54 45 45 47 48 45 45 44 45 54 55 52 46 42 40 41 37 37 33 33 33 35 37 38 37 38 37 37 33 33 30 25 23 23 22 21 21 19 18 25 26 25
34 41 53 52 58 61 59 47 53 59 58 58 48 49 48 43 44 42 41 44 53 57 49 42 38 39 39 37 35 37 34 38 39 40 41 40 38 36 36 34 34 33 31 29 28 27 23 21 20 17 18 24 24 26
35 44 57 63 43 39 38 56 56 57 55 56 55 47 48 51 52 49 49 54 58 51 39 34 33 34 37 36 37 37 35 39 40 39 40 41 38 36 34 33 32 31 33 31 29 27 23 18 19 18 20 22 26 26
39 50 59 39 34 24 36 44 54 54 54 53 46 42 40 49 52 49 55 57 58 50 41 33 33 38 40 41 42 38 35 38 40 38 39 40 35 30 30 30 30 29 28 27 28 25 21 19 21 20 20 22 24 25
47 43 33 32 36 42 42 46 56 58 60 59 53 50 37 36 38 49 61 60 55 51 42 34 37 41 44 43 45 42 34 35 35 37 37 37 35 33 31 28 26 26 24 26 25 22 20 19 19 22 20 23 24 24
36 30 31 29 49 50 58 59 58 54 48 46 38 43 42 41 39 47 57 50 49 44 31 34 35 37 38 36 35 34 31 30 31 34 32 32 31 31 30 30 28 26 23 23 25 24 21 20 16 16 21 23 23 23
28 27 48 54 49 55 54 49 49 46 52 47 43 43 35 33 37 52 42 41 38 32 29 32 33 30 27 27 26 25 26 30 31 28 27 28 29 27 26 24 24 22 27 29 25 22 20 21 15 17 21 24 22 21
31 48 51 57 61 60 56 53 53 52 54 45 43 43 29 32 41 30 26 34 26 27 30 32 26 22 21 23 25 28 33 33 32 31 30 28 25 25 22 18 21 26 28 29 27 25 21 18 16 18 22 21 20 20
46 56 56 51 54 58 60 60 60 59 55 51 47 46 53 54 49 41 35 33 30 28 28 25 26 25 25 27 31 34 34 33 31 29 29 26 21 20 22 22 22 20 24 29 25 20 19 21 18 20 20 19 19 19
58 55 52 57 58 59 56 53 56 54 52 51 47 46 45 43 36 30 28 30 33 32 26 24 27 28 30 31 33 34 34 32 30 29 27 22 18 22 23 23 23 25 29 25 22 21 18 16 18 19 18 18 18 18
57 57 55 54 54 57 55 48 44 41 39 41 44 44 42 39 36 34 32 33 34 30 28 27 31 34 35 35 35 35 34 30 29 28 26 21 21 24 25 28 30 29 27 27 21 16 15 17 18 17 17 17 17 17
61 52 53 54 52 48 44 46 43 41 39 37 37 35 34 35 37 37 32 30 31 29 29 35 37 37 36 34 33 35 35 31 29 28 25 22 23 21 26 31 31 29 28 22 18 13 15 15 15 16 16 15 15 16
47 45 42 41 42 42 42 39 37 33 36 38 39 38 36 37 39 34 30 26 27 31 35 37 36 31 29 29 28 28 28 27 28 25 22 22 22 20 28 32 31 27 21 21 18 12 14 15 15 15 14 14 14 15
Wind_Direction
309 313 316 317 319 316 314 316 315 322 331 338 345 348 347 322 294 288 297 309 308 302 273 251 256 251 261 264 264 264 278 266 270 268 262 255 269 271 275 275 281 275 267 240 223 234 280 219 233 237 274 288 283 279
300 304 307 309 312 305 309 304 306 306 318 323 330 338 347 337 306 281 279 287 297 301 292 280 262 240 245 254 260 269 264 266 272 281 280 292 278 281 280 279 286 268 248 261 239 261 277 271 279 283 286 283 280 279
292 297 300 300 304 299 298 297 296 293 300 310 317 330 333 337 326 298 281 280 282 291 291 288 287 262 245 248 256 255 261 267 269 272 273 277 277 281 280 285 282 280 277 269 280 276 278 278 287 288 286 281 278 280
286 292 295 293 299 292 287 287 284 285 286 296 304 316 320 325 327 316 297 283 282 287 291 288 283 287 281 266 261 262 263 263 265 267 267 268 272 278 276 279 279 277 276 278 279 276 279 278 282 277 274 270 273 278
286 288 291 290 290 288 289 287 276 278 276 282 291 302 310 314 319 320 313 293 280 275 276 283 284 289 285 276 271 267 266 265 267 269 269 272 277 278 281 279 276 284 284 273 280 291 276 273 263 262 263 265 274 280
285 284 285 287 284 287 284 282 273 269 272 274 280 289 300 304 310 315 310 308 288 276 279 290 282 284 278 271 273 274 274 270 268 272 276 277 278 279 275 276 291 295 292 278 279 277 283 283 266 257 263 273 280 283
276 280 283 278 287 275 279 279 276 264 265 266 273 279 285 293 299 303 302 302 289 279 279 292 287 273 279 267 281 280 280 278 278 276 276 278 279 278 277 283 312 302 293 280 272 266 264 262 266 268 273 279 285 285
267 274 277 275 275 280 272 273 272 265 261 261 264 270 279 284 289 290 298 300 293 278 281 266 261 276 278 276 284 291 289 292 291 289 282 281 282 278 276 320 320 291 271 294 270 271 261 252 257 261 268 276 280 284
258 267 270 269 273 278 271 270 268 261 260 258 260 262 264 273 281 286 286 289 281 265 260 247 261 284 268 276 294 292 296 296 290 280 281 279 273 266 311 306 298 284 278 280 281 277 267 245 246 257 265 274 280 284
256 258 259 261 264 268 277 268 262 255 257 259 260 260 262 267 274 277 283 284 273 261 249 259 267 256 273 283 289 299 291 281 279 288 290 278 284 304 299 324 321 309 286 267 253 260 245 234 235 259 278 281 279 285
252 252 253 256 258 265 270 270 260 254 244 254 256 256 259 263 268 275 267 249 248 249 245 222 251 264 277 278 282 272 272 274 261 266 276 274 293 312 312 319 323 318 294 276 232 239 238 236 254 288 288 279 284 293
241 246 249 252 251 258 266 270 261 250 239 242 253 255 258 258 251 241 230 227 226 228 226 227 251 254 269 286 273 268 263 255 251 258 266 269 311 326 325 318 318 326 320 285 233 230 240 256 281 282 281 289 296 304
234 237 234 248 246 251 260 264 260 242 236 236 239 249 252 236 230 222 209 202 200 213 237 246 240 239 259 259 256 254 245 249 269 239 242 257 316 343 355 351 340 329 331 355 305 243 250 258 270 281 290 299 308 312
231 233 236 241 240 248 256 258 250 236 234 232 225 226 227 220 226 229 226 224 223 235 243 235 230 226 222 260 243 238 240 253 246 238 252 261 273 321 341 350 351 340 318 323 327 306 281 277 282 290 299 308 314 314
229 231 231 227 236 243 251 253 235 227 233 228 217 218 227 225 230 233 224 220 219 232 235 231 234 238 233 227 223 229 231 229 230 246 275 259 275 298 320 326 322 329 315 303 313 307 297 292 293 298 305 313 313 322
225 239 232 229 234 236 244 226 219 226 232 231 226 218 219 220 226 228 224 216 219 227 230 229 231 229 219 213 211 212 229 234 268 286 293 292 292 298 309 324 324 314 306 287 295 300 298 297 297 305 313 317 323 317
226 240 238 227 239 235 222 210 214 221 226 230 235 228 219 230 227 228 227 223 223 228 229 224 224 209 217 224 221 220 248 286 274 275 281 290 290 288 295 309 312 311 311 290 290 293 292 294 295 303 317 317 309 317
229 231 236 228 230 224 212 214 217 220 227 235 239 241 238 239 231 232 231 230 229 235 241 234 243 226 223 244 261 294 292 283 283 280 284 284 282 285 289 294 298 304 307 284 280 284 287 289 288 302 309 307 311 316
237 241 240 232 225 215 210 214 218 223 231 238 243 242 241 243 241 237 241 241 238 242 242 241 241 247 254 274 293 293 298 293 282 283 282 287 287 286 288 291 293 287 289 288 279 281 282 282 285 293 300 309 309 310
234 240 236 234 234 217 209 208 217 219 229 237 243 246 245 244 243 241 238 241 247 244 236 237 246 255 270 281 288 291 293 295 294 289 286 286 286 282 282 280 278 283 282 282 278 276 280 279 278 284 296 302 305 306
225 228 232 234 227 223 213 211 217 222 225 233 241 244 245 245 245 246 245 239 239 244 247 252 261 269 277 282 286 288 290 288 286 280 276 273 275 280 281 281 277 274 277 275 273 271 274 271 277 292 301 301 303 308
225 228 221 222 218 212 213 216 221 226 226 232 238 240 239 241 245 247 249 247 249 253 258 266 272 275 279 279 283 280 278 275 279 279 277 277 278 280 281 281 277 273 275 273 266 267 269 267 271 287 293 297 303 304
227 223 218 209 202 207 213 220 224 231 232 235 238 239 242 245 247 247 246 253 257 260 265 272 274 274 274 277 270 267 270 275 279 282 279 278 276 274 277 280 280 277 274 269 265 261 263 260 275 281 287 294 300 300
228 214 195 197 200 193 207 210 222 225 233 231 229 227 234 241 245 245 251 257 261 265 267 271 269 266 267 269 272 275 278 273 274 278 277 276 278 280 276 275 273 275 272 260 255 254 254 250 265 276 279 287 294 296
209 190 199 198 201 204 204 212 220 224 228 230 231 229 233 235 234 244 255 258 261 263 267 272 268 266 267 270 272 275 273 274 276 275 273 272 275 276 277 274 274 273 264 255 251 246 239 243 262 275 282 289 293 294
200 197 196 205 208 209 215 218 221 221 222 226 229 230 228 232 239 247 256 263 266 271 276 272 273 269 267 272 271 270 273 272 275 278 280 280 276 273 270 269 274 262 250 244 242 240 238 243 257 271 278 287 291 292
200 197 206 215 217 220 216 218 221 225 223 222 225 221 217 221 239 251 258 265 272 276 271 270 267 265 261 256 264 274 279 276 277 280 280 279 275 268 270 276 269 250 241 236 234 230 240 253 254 264 275 285 288 291
206 213 217 221 219 222 221 220 220 222 226 225 222 224 227 233 247 250 265 278 274 272 275 276 259 247 256 271 279 279 274 276 281 284 283 281 275 264 267 279 264 252 247 229 225 237 245 248 248 261 277 283 286 290
216 222 221 222 226 225 228 229 231 231 230 230 230 230 239 251 265 266 271 273 270 267 279 261 242 251 264 271 267 263 269 275 280 283 283 280 276 267 268 266 256 234 229 238 239 237 237 245 244 268 277 280 283 289
219 221 221 224 225 227 229 231 234 237 242 242 243 249 256 263 267 264 260 259 259 271 272 249 253 261 263 261 259 262 267 271 274 275 275 275 268 257 256 245 229 227 236 230 233 251 246 230 256 269 274 277 283 287
220 224 223 226 231 232 233 233 234 235 238 243 248 257 262 262 262 260 256 254 259 264 258 263 263 255 254 256 260 262 263 267 268 270 273 277 268 261 251 228 214 218 225 239 252 225 222 246 261 268 272 278 283 288
218 220 223 224 227 231 233 235 235 240 244 248 253 258 256 252 252 255 256 262 260 258 261 261 258 259 267 269 263 258 258 260 265 271 274 272 267 266 238 220 208 211 226 239 215 222 248 257 261 266 272 279 285 291
212 217 220 222 227 230 233 233 233 238 243 246 246 248 250 252 255 260 264 258 259 263 263 262 260 256 253 251 254 255 256 259 263 266 262 265 264 262 225 209 214 220 231 225 215 228 254 260 261 266 273 280 288 293
Height
3118 3114 3110 3108 3105 3103 3099 3095 3093 3089 3087 3083 3080 3078 3075 3074 3072 3071 3071 3069 3068 3067 3066 3064 3064 3065 3065 3066 3066 3066 3067 3065 3064 3063 3062 3060 3058 3057 3055 3053 3051 3050 3047 3044 3044 3043 3038 3035 3036 3037 3035 3032 3031 3030
3111 3109 3105 3102 3101 3098 3097 3094 3091 3087 3084 3082 3077 3076 3074 3071 3070 3068 3067 3067 3066 3064 3064 3062 3060 3060 3061 3061 3062 3061 3063 3062 3062 3062 3062 3059 3057 3054 3051 3050 3048 3046 3044 3042 3041 3036 3034 3034 3034 3033 3031 3030 3029 3028
3102 3101 3099 3095 3094 3093 3091 3090 3088 3086 3081 3080 3078 3074 3072 3069 3068 3066 3064 3063 3062 3060 3059 3058 3058 3057 3057 3057 3057 3057 3057 3057 3056 3056 3055 3054 3053 3051 3049 3044 3042 3040 3039 3036 3035 3031 3029 3029 3028 3028 3026 3026 3024 3024
3093 3093 3091 3088 3086 3086 3084 3083 3083 3082 3079 3076 3075 3072 3069 3066 3064 3062 3061 3060 3059 3057 3056 3056 3053 3054 3054 3054 3053 3053 3052 3052 3051 3049 3048 3046 3044 3042 3038 3038 3035 3036 3033 3029 3025 3025 3024 3023 3023 3022 3021 3021 3020 3019
3084 3084 3083 3081 3079 3079 3078 3078 3076 3077 3074 3071 3070 3069 3066 3064 3061 3058 3057 3056 3055 3057 3053 3051 3049 3050 3049 3048 3048 3047 3047 3046 3045 3044 3042 3041 3039 3037 3031 3027 3018 3022 3022 3020 3016 3018 3015 3015 3016 3016 3016 3016 3015 3014
3075 3075 3074 3073 3073 3073 3072 3071 3070 3069 3069 3068 3066 3064 3063 3061 3058 3056 3053 3052 3051 3050 3048 3046 3044 3042 3042 3041 3042 3042 3042 3041 3040 3039 3037 3033 3032 3032 3023 3011 3008 3011 3014 3014 3012 3012 3011 3010 3010 3010 3010 3010 3009 3008
3065 3066 3065 3065 3066 3066 3065 3065 3065 3062 3062 3062 3062 3060 3057 3056 3054 3053 3052 3050 3047 3046 3046 3043 3039 3036 3036 3036 3035 3035 3035 3034 3034 3032 3028 3026 3023 3024 3014 3004 3004 3004 3004 3002 3001 3001 3001 3004 3004 3004 3004 3003 3003 3001
3052 3056 3056 3058 3057 3059 3057 3057 3057 3057 3055 3055 3056 3055 3053 3051 3049 3048 3046 3044 3043 3043 3041 3040 3037 3035 3033 3032 3032 3031 3030 3028 3026 3024 3020 3019 3017 3014 3001 2999 2996 2993 2993 2993 2993 2992 2992 2994 2996 2997 2997 2997 2996 2995
3038 3043 3047 3048 3049 3050 3049 3049 3049 3051 3051 3048 3049 3049 3046 3046 3044 3044 3041 3039 3037 3041 3035 3031 3031 3032 3029 3028 3027 3025 3024 3020 3018 3014 3014 3015 3005 2998 2995 2992 2990 2988 2986 2986 2987 2986 2985 2986 2988 2990 2991 2992 2991 2990
3025 3029 3034 3038 3039 3041 3041 3041 3039 3040 3044 3044 3044 3043 3040 3040 3039 3039 3036 3033 3030 3027 3025 3023 3023 3023 3026 3024 3022 3021 3016 3015 3012 3011 3009 3003 2994 2995 2992 2988 2984 2980 2976 2977 2979 2981 2981 2982 2984 2985 2986 2986 2985 2985
3010 3016 3021 3026 3029 3031 3031 3031 3031 3031 3034 3036 3036 3037 3036 3034 3033 3032 3031 3027 3025 3023 3020 3019 3020 3020 3020 3021 3020 3020 3015 3011 3008 3007 3006 3000 2993 2991 2988 2985 2980 2975 2971 2970 2972 2975 2977 2979 2980 2981 2980 2980 2980 2979
2996 3002 3009 3013 3016 3020 3021 3021 3020 3022 3024 3026 3029 3030 3031 3030 3027 3024 3017 3017 3015 3016 3015 3016 3017 3018 3017 3018 3017 3016 3014 3010 3005 3003 3001 2996 2994 2990 2984 2979 2975 2971 2968 2964 2966 2969 2972 2974 2975 2975 2975 2974 2974 2972
2982 2988 2994 3001 3004 3007 3009 3009 3011 3011 3014 3016 3020 3024 3025 3022 3015 3008 3001 3001 3003 3005 3009 3010 3012 3013 3013 3013 3013 3012 3009 3007 3003 2998 2992 2989 2989 2987 2982 2976 2972 2970 2968 2966 2965 2966 2969 2970 2971 2971 2970 2969 2967 2966
2968 2976 2981 2987 2990 2994 2997 2998 2998 3001 3005 3006 3008 3010 3011 3003 2997 2995 2995 2995 2997 2999 3002 3005 3006 3008 3008 3009 3008 3006 3005 3002 2998 2990 2982 2982 2983 2983 2981 2977 2973 2970 2970 2968 2967 2967 2967 2967 2967 2967 2965 2964 2961 2959
2954 2961 2967 2970 2977 2980 2985 2986 2987 2990 2992 2995 2995 2989 2984 2990 2989 2989 2990 2990 2992 2994 2996 2999 3001 3004 3003 3003 3003 3001 2998 2991 2986 2982 2980 2979 2977 2977 2977 2975 2973 2970 2969 2968 2966 2966 2966 2965 2963 2962 2961 2958 2956 2952
2942 2947 2948 2957 2962 2966 2971 2970 2974 2978 2978 2980 2974 2969 2974 2977 2981 2982 2985 2986 2986 2987 2990 2993 2994 2996 2996 2995 2991 2990 2988 2979 2976 2977 2978 2976 2973 2972 2971 2971 2969 2967 2965 2964 2963 2961 2960 2960 2959 2958 2955 2953 2950 2948
2928 2928 2936 2942 2949 2952 2954 2952 2957 2960 2964 2960 2953 2962 2969 2970 2974 2977 2978 2980 2982 2983 2982 2985 2985 2987 2985 2984 2980 2975 2971 2973 2972 2970 2970 2969 2967 2965 2965 2964 2965 2962 2961 2959 2958 2957 2955 2953 2953 2952 2950 2949 2946 2941
2911 2918 2922 2929 2934 2936 2937 2939 2942 2943 2943 2940 2942 2955 2962 2964 2967 2971 2972 2972 2974 2976 2977 2975 2975 2973 2971 2966 2964 2968 2968 2967 2966 2965 2963 2962 2962 2960 2959 2958 2957 2957 2955 2953 2952 2951 2950 2949 2947 2945 2944 2942 2938 2934
2901 2903 2908 2912 2914 2917 2921 2923 2926 2928 2929 2931 2934 2945 2950 2952 2956 2961 2964 2966 2966 2967 2968 2965 2961 2950 2950 2955 2959 2961 2960 2960 2959 2958 2957 2955 2954 2953 2952 2951 2950 2950 2949 2947 2946 2944 2943 2942 2941 2939 2936 2935 2932 2929
2887 2890 2894 2898 2902 2903 2904 2908 2910 2915 2917 2922 2924 2927 2938 2944 2948 2947 2950 2954 2956 2953 2948 2944 2938 2940 2946 2950 2952 2953 2952 2950 2949 2948 2948 2945 2942 2942 2942 2942 2942 2942 2941 2940 2939 2937 2935 2935 2934 2931 2930 2928 2926 2923
2873 2876 2883 2884 2883 2888 2891 2892 2895 2901 2905 2909 2912 2918 2924 2930 2933 2934 2936 2939 2937 2927 2926 2929 2934 2939 2942 2941 2942 2943 2942 2940 2938 2937 2935 2931 2930 2930 2931 2931 2932 2932 2933 2932 2930 2929 2928 2927 2927 2925 2924 2923 2919 2916
2859 2862 2865 2868 2871 2876 2881 2883 2889 2891 2899 2897 2903 2909 2912 2916 2919 2920 2922 2920 2911 2909 2919 2926 2929 2930 2932 2932 2932 2931 2930 2928 2926 2925 2923 2921 2920 2919 2919 2920 2920 2921 2922 2923 2922 2921 2921 2920 2919 2918 2918 2916 2913 2910
2847 2850 2854 2857 2862 2865 2869 2874 2882 2883 2888 2890 2895 2897 2898 2901 2906 2908 2905 2900 2894 2903 2914 2917 2919 2920 2918 2919 2916 2917 2918 2916 2914 2913 2912 2910 2909 2907 2907 2908 2909 2909 2910 2912 2913 2912 2913 2912 2912 2911 2911 2909 2906 2903
2836 2837 2840 2843 2847 2852 2857 2863 2869 2872 2875 2877 2878 2882 2884 2888 2890 2893 2889 2884 2883 2895 2902 2907 2908 2907 2905 2904 2903 2905 2907 2904 2902 2901 2900 2898 2897 2898 2897 2898 2898 2898 2899 2901 2901 2903 2904 2904 2904 2903 2903 2902 2899 2897
2823 2826 2831 2830 2833 2842 2846 2850 2854 2858 2860 2860 2865 2867 2874 2877 2880 2877 2870 2867 2876 2883 2890 2894 2893 2892 2890 2891 2891 2892 2893 2890 2889 2889 2890 2888 2888 2887 2887 2887 2888 2889 2889 2890 2892 2893 2894 2895 2894 2895 2896 2894 2892 2890
2807 2809 2815 2817 2823 2828 2831 2837 2838 2841 2848 2852 2855 2858 2864 2866 2867 2860 2854 2862 2869 2874 2877 2878 2878 2878 2877 2878 2879 2879 2880 2878 2877 2877 2880 2879 2878 2878 2878 2878 2878 2879 2880 2882 2883 2885 2886 2887 2886 2888 2889 2887 2885 2883
2792 2794 2801 2806 2811 2814 2816 2822 2829 2834 2838 2838 2840 2846 2852 2856 2849 2843 2850 2855 2860 2862 2862 2863 2864 2865 2866 2866 2867 2869 2870 2868 2868 2869 2870 2869 2868 2868 2869 2870 2869 2871 2871 2873 2875 2877 2879 2879 2879 2881 2881 2880 2878 2877
2783 2787 2789 2792 2797 2799 2805 2812 2815 2817 2819 2823 2832 2833 2835 2833 2833 2842 2846 2848 2851 2852 2852 2852 2854 2855 2857 2857 2858 2859 2858 2858 2859 2859 2860 2860 2860 2860 2861 2861 2861 2861 2862 2865 2867 2869 2871 2873 2873 2873 2873 2872 2872 2870
2775 2777 2780 2783 2788 2793 2796 2798 2800 2803 2805 2811 2815 2819 2818 2822 2831 2836 2840 2839 2840 2841 2842 2843 2845 2847 2849 2849 2848 2848 2848 2849 2850 2851 2851 2851 2851 2853 2853 2852 2853 2855 2858 2859 2861 2862 2864 2865 2866 2867 2866 2866 2865 2864
2762 2766 2768 2772 2775 2777 2781 2787 2791 2796 2801 2807 2811 2814 2817 2819 2825 2827 2829 2829 2829 2831 2833 2835 2836 2837 2838 2838 2839 2839 2839 2840 2841 2843 2842 2843 2844 2843 2843 2844 2846 2849 2851 2853 2854 2856 2857 2859 2860 2860 2860 2860 2859 2858
2753 2754 2759 2763 2766 2770 2775 2781 2785 2790 2793 2797 2801 2804 2807 2810 2812 2813 2816 2818 2820 2821 2823 2825 2826 2826 2827 2828 2829 2830 2830 2832 2832 2833 2835 2835 2835 2835 2834 2836 2838 2842 2844 2846 2848 2850 2852 2853 2854 2854 2854 2854 2853 2852
2741 2743 2750 2756 2759 2764 2769 2774 2779 2782 2786 2789 2792 2794 2795 2797 2799 2801 2804 2807 2808 2811 2814 2815 2814 2816 2818 2818 2818 2819 2821 2823 2824 2826 2827 2827 2827 2826 2827 2829 2831 2835 2838 2841 2843 2845 2847 2848 2848 2849 2849 2848 2848 2847
2735 2740 2745 2750 2754 2757 2762 2769 2771 2776 2777 2777 2778 2782 2785 2786 2784 2789 2792 2796 2799 2801 2802 2803 2804 2805 2806 2806 2808 2810 2813 2815 2816 2817 2819 2819 2819 2819 2821 2823 2826 2830 2833 2836 2837 2840 2842 2843 2843 2843 2843 2843 2842 2842